Time,TemperatureF,DewpointF,PressureIn,WindDirection,WindDirectionDegrees,WindSpeedMPH,WindSpeedGustMPH,Humidity,HourlyPrecipIn,Conditions,Clouds,dailyrainin,SolarRadiationWatts/m^2,SoftwareType,DateUTC
2013-02-18 00:01:00,32.0,31.0,-100.00,ENE,74,0.0,0.0,96,0.00,,,0.00,0.000000,,2013-02-18 08:01:00,
2013-02-18 00:11:00,32.0,31.0,-100.00,ENE,74,0.0,0.0,96,0.00,,,0.00,0.000000,,2013-02-18 08:11:00,
2013-02-18 00:33:00,32.0,31.0,-100.00,SSE,150,0.0,0.0,97,0.00,,,0.00,0.000000,,2013-02-18 08:33:00,
2013-02-18 00:42:00,32.0,31.0,-100.00,SSE,150,0.0,0.0,97,0.00,,,0.00,0.000000,,2013-02-18 08:42:00,
2013-02-18 00:52:00,32.0,31.0,-100.00,SSE,150,0.0,0.0,97,0.00,,,0.00,0.000000,,2013-02-18 08:52:00,
2013-02-18 01:02:00,32.0,31.0,-100.00,SSE,150,0.0,0.0,97,0.00,,,0.00,0.000000,,2013-02-18 09:02:00,
2013-02-18 01:11:00,32.0,31.0,-100.00,SSE,150,0.0,0.0,97,0.00,,,0.00,0.000000,,2013-02-18 09:11:00,
2013-02-18 01:32:00,32.0,31.0,-100.00,NE,56,0.0,0.0,97,0.00,,,0.00,0.000000,,2013-02-18 09:32:00,
2013-02-18 01:42:00,32.0,31.0,-100.00,NE,56,0.0,0.0,97,0.00,,,0.00,0.000000,,2013-02-18 09:42:00,
2013-02-18 01:52:00,32.0,31.0,-100.00,NE,56,0.0,0.0,97,0.00,,,0.00,0.000000,,2013-02-18 09:52:00,
2013-02-18 02:01:00,32.0,31.0,-100.00,NE,56,0.0,0.0,97,0.00,,,0.00,0.000000,,2013-02-18 10:01:00,
2013-02-18 02:11:00,32.0,31.0,-100.00,NE,56,0.0,0.0,97,0.00,,,0.00,0.000000,,2013-02-18 10:11:00,
2013-02-18 02:42:00,31.0,30.0,-100.00,ENE,68,0.0,0.0,97,0.00,,,0.00,0.000000,,2013-02-18 10:42:00,
2013-02-18 02:52:00,31.0,30.0,-100.00,ENE,68,0.0,0.0,97,0.00,,,0.00,0.000000,,2013-02-18 10:52:00,
2013-02-18 03:01:00,31.0,30.0,-100.00,ENE,68,0.0,0.0,97,0.00,,,0.00,0.000000,,2013-02-18 11:01:00,
2013-02-18 03:11:00,31.0,30.0,-100.00,ENE,68,0.0,0.0,97,0.00,,,0.00,0.000000,,2013-02-18 11:11:00,
2013-02-18 03:43:00,31.0,31.0,-100.00,East,89,0.0,0.0,98,0.00,,,0.00,0.000000,,2013-02-18 11:43:00,
2013-02-18 03:53:00,31.0,31.0,-100.00,East,89,0.0,0.0,98,0.00,,,0.00,0.000000,,2013-02-18 11:53:00,
2013-02-18 04:02:00,31.0,31.0,-100.00,East,89,0.0,0.0,98,0.00,,,0.00,0.000000,,2013-02-18 12:02:00,
2013-02-18 04:11:00,31.0,31.0,-100.00,East,89,0.0,0.0,98,0.00,,,0.00,0.000000,,2013-02-18 12:11:00,
2013-02-18 04:32:00,31.0,31.0,-100.00,SW,219,0.0,0.0,98,0.00,,,0.00,0.000000,,2013-02-18 12:32:00,
2013-02-18 04:42:00,31.0,31.0,-100.00,SW,219,0.0,0.0,98,0.00,,,0.00,0.000000,,2013-02-18 12:42:00,
2013-02-18 04:53:00,31.0,31.0,-100.00,SW,219,0.0,0.0,98,0.00,,,0.00,0.000000,,2013-02-18 12:53:00,
2013-02-18 05:02:00,31.0,31.0,-100.00,SW,219,0.0,0.0,98,0.00,,,0.00,0.000000,,2013-02-18 13:02:00,
2013-02-18 05:11:00,31.0,31.0,-100.00,SW,219,0.0,0.0,98,0.00,,,0.00,0.000000,,2013-02-18 13:11:00,
2013-02-18 05:42:00,30.0,29.0,-100.00,West,270,0.0,0.0,98,0.00,,,-99.99,0.000000,,2013-02-18 13:42:00,
2013-02-18 05:53:00,30.0,29.0,-100.00,West,270,0.0,0.0,98,0.00,,,-99.99,0.000000,,2013-02-18 13:53:00,
2013-02-18 06:02:00,30.0,29.0,-100.00,West,270,0.0,0.0,98,0.00,,,-99.99,0.000000,,2013-02-18 14:02:00,
2013-02-18 06:11:00,30.0,29.0,-100.00,West,270,0.0,0.0,98,0.00,,,-99.99,0.000000,,2013-02-18 14:11:00,
2013-02-18 06:33:00,31.0,31.0,-100.00,SSE,156,0.0,0.0,99,0.00,,,0.00,0.000000,,2013-02-18 14:33:00,
2013-02-18 06:42:00,31.0,31.0,-100.00,SSE,156,0.0,0.0,99,0.00,,,0.00,0.000000,,2013-02-18 14:42:00,
2013-02-18 06:53:00,31.0,31.0,-100.00,SSE,156,0.0,0.0,99,0.00,,,0.00,0.000000,,2013-02-18 14:53:00,
2013-02-18 07:11:00,31.0,31.0,-100.00,SSE,156,0.0,0.0,99,0.00,,,0.00,0.000000,,2013-02-18 15:11:00,
2013-02-18 07:42:00,32.0,32.0,-100.00,ESE,109,0.0,0.0,99,0.00,,,0.00,0.000000,,2013-02-18 15:42:00,
2013-02-18 07:52:00,32.0,32.0,-100.00,ESE,109,0.0,0.0,99,0.00,,,0.00,0.000000,,2013-02-18 15:52:00,
2013-02-18 08:02:00,32.0,32.0,-100.00,ESE,109,0.0,0.0,99,0.00,,,0.00,0.000000,,2013-02-18 16:02:00,
2013-02-18 08:11:00,32.0,32.0,-100.00,ESE,109,0.0,0.0,99,0.00,,,0.00,0.000000,,2013-02-18 16:11:00,
2013-02-18 08:33:00,33.0,32.0,-100.00,North,359,0.0,0.0,98,0.00,,,0.00,39.000000,,2013-02-18 16:33:00,
2013-02-18 08:43:00,33.0,32.0,-100.00,North,359,0.0,0.0,98,0.00,,,0.00,39.000000,,2013-02-18 16:43:00,
2013-02-18 08:52:00,33.0,32.0,-100.00,North,359,0.0,0.0,98,0.00,,,0.00,39.000000,,2013-02-18 16:52:00,
2013-02-18 09:03:00,33.0,32.0,-100.00,North,359,0.0,0.0,98,0.00,,,0.00,39.000000,,2013-02-18 17:03:00,
2013-02-18 09:11:00,33.0,32.0,-100.00,North,359,0.0,0.0,98,0.00,,,0.00,39.000000,,2013-02-18 17:11:00,
2013-02-18 09:43:00,36.0,33.0,-100.00,SSW,201,0.0,0.0,90,0.00,,,0.00,111.000000,,2013-02-18 17:43:00,
2013-02-18 09:52:00,36.0,33.0,-100.00,SSW,201,0.0,0.0,90,0.00,,,0.00,111.000000,,2013-02-18 17:52:00,
2013-02-18 10:02:00,36.0,33.0,-100.00,SSW,201,0.0,0.0,90,0.00,,,0.00,111.000000,,2013-02-18 18:02:00,
2013-02-18 10:11:00,36.0,33.0,-100.00,SSW,201,0.0,0.0,90,0.00,,,0.00,111.000000,,2013-02-18 18:11:00,
2013-02-18 10:33:00,40.0,34.0,-100.00,SSW,206,0.0,0.0,80,0.00,,,0.00,189.000000,,2013-02-18 18:33:00,
2013-02-18 10:43:00,40.0,34.0,-100.00,SSW,206,0.0,0.0,80,0.00,,,0.00,189.000000,,2013-02-18 18:43:00,
2013-02-18 10:52:00,40.0,34.0,-100.00,SSW,206,0.0,0.0,80,0.00,,,0.00,189.000000,,2013-02-18 18:52:00,
2013-02-18 11:02:00,40.0,34.0,-100.00,SSW,206,0.0,0.0,80,0.00,,,0.00,189.000000,,2013-02-18 19:02:00,
2013-02-18 11:11:00,40.0,34.0,-100.00,SSW,206,0.0,0.0,80,0.00,,,0.00,189.000000,,2013-02-18 19:11:00,
2013-02-18 11:43:00,43.0,34.0,-100.00,SSW,203,0.0,1.0,70,0.00,,,0.00,278.000000,,2013-02-18 19:43:00,
2013-02-18 11:53:00,43.0,34.0,-100.00,SSW,203,0.0,1.0,70,0.00,,,0.00,278.000000,,2013-02-18 19:53:00,
2013-02-18 12:01:00,43.0,34.0,-100.00,SSW,203,0.0,1.0,70,0.00,,,0.00,278.000000,,2013-02-18 20:01:00,
2013-02-18 12:11:00,43.0,34.0,-100.00,SSW,203,0.0,1.0,70,0.00,,,0.00,278.000000,,2013-02-18 20:11:00,
2013-02-18 13:43:00,44.0,31.0,-100.00,SSW,204,1.0,7.0,61,-99.99,,,0.00,254.000000,,2013-02-18 21:43:00,
2013-02-18 13:52:00,44.0,31.0,-100.00,SSW,204,1.0,7.0,61,-99.99,,,0.00,254.000000,,2013-02-18 21:52:00,
2013-02-18 14:02:00,44.0,31.0,-100.00,SSW,204,1.0,7.0,61,-99.99,,,0.00,254.000000,,2013-02-18 22:02:00,
2013-02-18 15:34:00,45.0,31.0,-100.00,SSW,203,0.0,12.0,57,-99.99,,,0.00,308.000000,,2013-02-18 23:34:00,
2013-02-18 15:43:00,45.0,31.0,-100.00,SSW,203,0.0,12.0,57,-99.99,,,0.00,308.000000,,2013-02-18 23:43:00,
2013-02-18 15:53:00,45.0,31.0,-100.00,SSW,203,0.0,12.0,57,-99.99,,,0.00,308.000000,,2013-02-18 23:53:00,
2013-02-18 16:02:00,45.0,31.0,-100.00,SSW,203,0.0,12.0,57,-99.99,,,0.00,308.000000,,2013-02-19 00:02:00,
2013-02-18 16:11:00,45.0,31.0,-100.00,SSW,203,0.0,12.0,57,-99.99,,,0.00,308.000000,,2013-02-19 00:11:00,
2013-02-18 16:35:00,45.0,33.0,-100.00,SSW,198,0.0,6.0,63,0.00,,,0.00,139.000000,,2013-02-19 00:35:00,
2013-02-18 16:44:00,45.0,33.0,-100.00,SSW,198,0.0,6.0,63,0.00,,,0.00,139.000000,,2013-02-19 00:44:00,
2013-02-18 16:54:00,45.0,33.0,-100.00,SSW,198,0.0,6.0,63,0.00,,,0.00,139.000000,,2013-02-19 00:54:00,
2013-02-18 17:02:00,45.0,33.0,-100.00,SSW,198,0.0,6.0,63,0.00,,,0.00,139.000000,,2013-02-19 01:02:00,
2013-02-18 17:12:00,45.0,33.0,-100.00,SSW,198,0.0,6.0,63,0.00,,,0.00,139.000000,,2013-02-19 01:12:00,
2013-02-18 17:45:00,44.0,33.0,-100.00,South,179,0.0,0.0,65,0.00,,,-99.99,49.000000,,2013-02-19 01:45:00,
2013-02-18 17:55:00,44.0,33.0,-100.00,South,179,0.0,0.0,65,0.00,,,-99.99,49.000000,,2013-02-19 01:55:00,
2013-02-18 18:02:00,44.0,33.0,-100.00,South,179,0.0,0.0,65,0.00,,,-99.99,49.000000,,2013-02-19 02:02:00,
2013-02-18 18:12:00,44.0,33.0,-100.00,South,179,0.0,0.0,65,0.00,,,-99.99,49.000000,,2013-02-19 02:12:00,
2013-02-18 18:43:00,42.0,33.0,-100.00,East,90,0.0,0.0,69,0.00,,,-99.99,7.000000,,2013-02-19 02:43:00,
2013-02-18 18:54:00,42.0,33.0,-100.00,East,90,0.0,0.0,69,0.00,,,-99.99,7.000000,,2013-02-19 02:54:00,
2013-02-18 19:04:00,42.0,33.0,-100.00,East,90,0.0,0.0,69,0.00,,,-99.99,7.000000,,2013-02-19 03:04:00,
2013-02-18 19:12:00,42.0,33.0,-100.00,East,90,0.0,0.0,69,0.00,,,-99.99,7.000000,,2013-02-19 03:12:00,
2013-02-18 19:35:00,42.0,32.0,-100.00,East,84,0.0,0.0,68,0.00,,,0.00,0.000000,,2013-02-19 03:35:00,
2013-02-18 19:45:00,42.0,32.0,-100.00,East,84,0.0,0.0,68,0.00,,,0.00,0.000000,,2013-02-19 03:45:00,
2013-02-18 19:54:00,42.0,32.0,-100.00,East,84,0.0,0.0,68,0.00,,,0.00,0.000000,,2013-02-19 03:54:00,
2013-02-18 20:02:00,42.0,32.0,-100.00,East,84,0.0,0.0,68,0.00,,,0.00,0.000000,,2013-02-19 04:02:00,
2013-02-18 20:11:00,42.0,32.0,-100.00,East,84,0.0,0.0,68,0.00,,,0.00,0.000000,,2013-02-19 04:11:00,
2013-02-18 20:34:00,41.0,32.0,-100.00,NE,56,0.0,0.0,70,0.00,,,0.00,0.000000,,2013-02-19 04:34:00,
2013-02-18 20:44:00,41.0,32.0,-100.00,NE,56,0.0,0.0,70,0.00,,,0.00,0.000000,,2013-02-19 04:44:00,
2013-02-18 20:54:00,41.0,32.0,-100.00,NE,56,0.0,0.0,70,0.00,,,0.00,0.000000,,2013-02-19 04:54:00,
2013-02-18 21:01:00,41.0,32.0,-100.00,NE,56,0.0,0.0,70,0.00,,,0.00,0.000000,,2013-02-19 05:01:00,
2013-02-18 21:12:00,41.0,32.0,-100.00,NE,56,0.0,0.0,70,0.00,,,0.00,0.000000,,2013-02-19 05:12:00,
2013-02-18 21:32:00,41.0,32.0,-100.00,South,188,0.0,0.0,71,0.00,,,0.00,0.000000,,2013-02-19 05:32:00,
2013-02-18 21:43:00,41.0,32.0,-100.00,South,188,0.0,0.0,71,0.00,,,0.00,0.000000,,2013-02-19 05:43:00,
2013-02-18 21:52:00,41.0,32.0,-100.00,South,188,0.0,0.0,71,0.00,,,0.00,0.000000,,2013-02-19 05:52:00,
2013-02-18 22:02:00,41.0,32.0,-100.00,South,188,0.0,0.0,71,0.00,,,0.00,0.000000,,2013-02-19 06:02:00,
2013-02-18 22:11:00,41.0,32.0,-100.00,South,188,0.0,0.0,71,0.00,,,0.00,0.000000,,2013-02-19 06:11:00,
2013-02-18 22:33:00,41.0,32.0,-100.00,NE,42,0.0,0.0,70,0.00,,,0.00,0.000000,,2013-02-19 06:33:00,
2013-02-18 22:42:00,41.0,32.0,-100.00,NE,42,0.0,0.0,70,0.00,,,0.00,0.000000,,2013-02-19 06:42:00,
2013-02-18 22:52:00,41.0,32.0,-100.00,NE,42,0.0,0.0,70,0.00,,,0.00,0.000000,,2013-02-19 06:52:00,
2013-02-18 23:01:00,41.0,32.0,-100.00,NE,42,0.0,0.0,70,0.00,,,0.00,0.000000,,2013-02-19 07:01:00,
2013-02-18 23:11:00,41.0,32.0,-100.00,NE,42,0.0,0.0,70,0.00,,,0.00,0.000000,,2013-02-19 07:11:00,
2013-02-18 23:42:00,39.0,35.0,-100.00,ESE,120,0.0,0.0,85,0.00,,,0.00,0.000000,,2013-02-19 07:42:00,
2013-02-18 23:52:00,39.0,35.0,-100.00,ESE,120,0.0,0.0,85,0.00,,,0.00,0.000000,,2013-02-19 07:52:00,